FloripaSat 1
1 44885U 19093G   25219.50098380  .00004298  00000-0  35931-3 0  9990
2 44885  97.8149 307.2408 0010000   9.1256 351.0147 14.99000846305579
RS-44
1 44909U 19096E   25219.42439400  .00000015  00000-0  96996-5 0  9996
2 44909  82.5221 188.1837 0217833 157.6989 203.3764 12.79742450262212
UPMSat 2
1 46276U 20061E   25219.47806815  .00107425  00000-0  64114-3 0  9990
2 46276  97.2390 296.1758 0001234 189.2443 170.8802 15.77590877274720
SALSAT
1 46495U 20068K   25219.48126246  .00006410  00000-0  27178-3 0  9995
2 46495  97.8641 200.2739 0009796 325.6389  34.4212 15.23466709267492
CubeSX-Sirius-HSE
1 47951U 21022V   25157.62701764  .07883385  25648-5  89537-3 0  9993
2 47951  97.4004  72.1904 0010275 223.9924 136.0557 16.36879307233400
CubeSX-HSE
1 47952U 21022W   25157.69972699  .06655353  25454-5  93288-3 0  9992
2 47952  97.3980  72.5414 0010307 219.3637 140.6911 16.34906352233436
GRBAlpha
1 47959U 21022AD  25160.45426279  .07940347  25506-5  90589-3 0  9995
2 47959  97.3899  75.6235 0011032 227.2558 132.7812 16.36806138232695
TUBIN
1 48900U 21059X   25219.62919331  .00046338  00000-0  46355-3 0  9991
2 48900  97.6764  33.8801 0002585  20.8997 339.2367 15.65454323229262
LEDSAT
1 49069U 21073D   25219.21229929  .00092567  00000-0  78942-3 0  9998
2 49069  97.3856 303.5276 0008923 213.6274 146.4422 15.69197720220601
CUTE
1 49263U 21088D   25219.17765558  .00014790  00000-0  26957-3 0  9999
2 49263  97.4485 297.2231 0007154  35.1949 324.9773 15.49539670213490
TeikyoSat 4
1 49396U 21102B   25219.55058298  .00001356  00000-0  92344-4 0  9999
2 49396  97.4073 255.8465 0010898 294.5903  65.4189 15.07854044205431
Z-Sat
1 49399U 21102E   25219.61495804  .00003444  00000-0  18830-3 0  9994
2 49399  97.3766 259.3763 0016256 257.7370 102.2042 15.14831018205910
KOSEN 1
1 49402U 21102H   25219.56604895  .00005661  00000-0  25801-3 0  9994
2 49402  97.3670 263.1983 0014469 227.7644 132.2365 15.20961008206250
HO-113
1 50466U 21131B   25219.57989352  .00000391  00000-0  13574-3 0  9992
2 50466  98.5099 308.6450 0003377 334.0664  26.0355 14.40872038189944
Foresail-1
1 52766U 22057AL  25176.64799660  .13857605  27391-5  25307-3 0  9992
2 52766  97.5832 331.2310 0012137 233.7199 258.4922 16.46795272172486
SNUGLITE 2
1 52899U 22065F   25219.63950028  .00000926  00000-0  18861-3 0  9994
2 52899  98.1763   1.0656 0006372 291.5911  68.4611 14.63329689165125
UmKA 1 (RS40S)
1 57172U 23091G   25219.62993743  .00005930  00000-0  31207-3 0  9992
2 57172  97.5544 274.7119 0015608 127.4256 232.8400 15.15917942116423
CubeBel-2 (EU11S)
1 57175U 23091K   25219.63039563  .00008857  00000-0  41046-3 0  9990
2 57175  97.5545 276.2324 0013258 133.0753 227.1594 15.20243315116520
VERONIKA
1 58261U 23174F   25219.36694317  .00777729  29493-3  13219-2 0  9994
2 58261  97.4055 310.0626 0010920 251.3388 108.6707 16.02554977 97971
ENSO
1 58470U 23185J   25219.63063113  .00078446  00000-0  88196-3 0  9999
2 58470  97.3696 296.8927 0006653 213.6506 146.4330 15.62322620 94230
EIRSAT-1
1 58472U 23185L   25219.43506086  .00230212  00000-0  98686-3 0  9996
2 58472  97.3602 299.9667 0007495 227.3406 132.7233 15.84470045 94420
SONATE-2
1 59112U 24043Q   25219.62553829  .00015657  00000-0  42777-3 0  9994
2 59112  97.5198 352.0802 0009611 261.9442  98.0712 15.37442382 79400
MO-122
1 60209U 24125G   25219.55901692  .00016114  00000-0  43190-3 0  9990
2 60209  97.2737  70.5730 0016203 286.0994  73.8467 15.37936364 61016
GRBBeta
1 60237U 24128C   25219.42061742  .00002997  00000-0  22977-3 0  9997
2 60237  61.9892 234.3320 0055623  70.0320 290.6750 15.03042773 59044
Curium One
1 60242U 24128H   25219.62008389  .00005742  00000-0  39495-3 0  9997
2 60242  61.9789 231.0181 0055661  66.3641 294.3281 15.05818212 59120
ROBUSTA-3A
1 60243U 24128J   25219.50856636  .00004394  00000-0  31029-3 0  9998
2 60243  61.9861 232.4377 0054751  63.9907 296.6809 15.05319003 59092
CatSat
1 60246U 24125J   25219.32267339  .00015633  00000-0  50194-3 0  9996
2 60246  97.2546  68.8635 0039935 243.5064 116.2080 15.31593256 58979
HYPERVIEW-1G (RS66S)
1 61772U 24199AP  25219.61428686  .00020003  00000-0  54174-3 0  9997
2 61772  97.3453  88.4094 0012034 349.6093  10.4901 15.37630122 86024
AO-123
1 61781U 24199AY  25219.62290559  .00006121  00000-0  21901-3 0  9991
2 61781  97.3471  86.6222 0015250 355.3822   4.7275 15.29042214 85900
ZIMSAT 2
1 61783U 24199BA  25219.63096652  .00042167  00000-0  90176-3 0  9992
2 61783  97.3421  89.5561 0010694 345.4761  14.6179 15.44641617 89258
HADES-R (SO-124)
1 62690U 25009CK  25219.17581730  .00034259  00000-0  10783-2 0  9994
2 62690  97.4070 299.8913 0002835 219.5020 140.6015 15.32858960 31110
HYDRA-T
1 62692U 25009CM  25219.47609617  .00037575  00000-0  11677-2 0  9991
2 62692  97.4073 300.2528 0002803 213.7069 146.3995 15.33243925 31163
JINJUSat 1B
1 63210U 25052A   25219.20614160  .00009420  00000-0  41829-3 0  9997
2 63210  97.4343 112.6075 0006205 110.1663 250.0241 15.21748157 22163
NUSHSAT 1
1 63211U 25052B   25219.45303108  .00011695  00000-0  51303-3 0  9997
2 63211  97.4332 112.8699 0006150 113.1862 247.0023 15.22107097 22201
TEVEL2-4
1 63213U 25052D   25219.61052985  .00010524  00000-0  46678-3 0  9990
2 63213  97.4248 112.8092 0005101 122.7917 237.3811 15.21760536 22229
TEVEL2-5
1 63214U 25052E   25219.61202099  .00010326  00000-0  45849-3 0  9993
2 63214  97.4250 112.8078 0005120 122.7535 237.4195 15.21730821 22224
TEVEL2-6
1 63215U 25052F   25219.41844244  .00010177  00000-0  45246-3 0  9991
2 63215  97.4251 112.6103 0005155 123.8791 236.2936 15.21688086 22198
TEVEL2-1
1 63217U 25052H   25219.43820276  .00010388  00000-0  46499-3 0  9999
2 63217  97.4227 112.5372 0005012 133.4759 226.6895 15.21452670 22198
TEVEL2-3
1 63218U 25052J   25219.43842347  .00010208  00000-0  45692-3 0  9998
2 63218  97.4229 112.5386 0005055 134.1802 225.9850 15.21456498 22195
TEVEL2-2
1 63219U 25052K   25219.43880513  .00010211  00000-0  45718-3 0  9999
2 63219  97.4229 112.5375 0005017 134.1388 226.0261 15.21447928 22197
TEVEL2-9
1 63237U 25052AD  25219.61741678  .00009375  00000-0  43533-3 0  9999
2 63237  97.4290 112.5736 0008786 155.7012 204.4640 15.20196579 22200
TEVEL2-7
1 63238U 25052AE  25219.42486080  .00009196  00000-0  42803-3 0  9992
2 63238  97.4293 112.3760 0008824 156.6638 203.5000 15.20118010 22176
TEVEL2-8
1 63239U 25052AF  25219.62557049  .00009406  00000-0  43807-3 0  9998
2 63239  97.4291 112.5644 0008856 156.1560 204.0087 15.20090986 22208
HYDRA-W
1 63490U 25052BL  25219.61876634  .00026934  00000-0  10474-2 0  9998
2 63490  97.4240 113.2354 0012605 153.6957 206.4924 15.25932792 22252
HADES-ICM (SO-125)
1 63492U 25052BN  25219.19405117  .00023581  00000-0  93504-3 0  9998
2 63492  97.4245 112.7443 0012633 159.7425 200.4316 15.25309636 22186
